• In Uzbekistan
  • List of Countries
  • For 7 days
  • Water Temperature
  • Satellite Maps
  • Weather Map
  • Weather Widgets
  • user-avatar
    Login

    Hourly Weather Tbilisi

    Today, 17 October, Wednesday

    Time Temperature Precipitation Wind Pressure Humidity
    00:00 +13°C° 0 mm 1 mps 707 mmHg 81%
    01:00 +13°C° 0 mm 1 mps 707 mmHg 82%
    02:00 +13°C° 0 mm 1 mps 707 mmHg 83%
    03:00 +13°C° 0 mm 1 mps 707 mmHg 85%
    04:00 +12°C° 0 mm 1 mps 707 mmHg 86%
    05:00 +12°C° 0 mm 1 mps 707 mmHg 87%
    06:00 +12°C° 0 mm 1 mps 707 mmHg 88%
    07:00 +13°C° 0 mm 1 mps 707 mmHg 81%
    08:00 +15°C° 0 mm 1 mps 707 mmHg 74%
    09:00 +18°C° 0 mm 1 mps 707 mmHg 65%
    10:00 +18°C° 0 mm 2 mps 707 mmHg 60%
    11:00 +19°C° 0 mm 2 mps 707 mmHg 55%
    12:00 +20°C° 0 mm 2 mps 706 mmHg 51%
    13:00 +20°C° 0 mm 3 mps 706 mmHg 49%
    14:00 +21°C° 0 mm 3 mps 706 mmHg 48%
    15:00 +21°C° 0 mm 3 mps 706 mmHg 47%
    16:00 +19°C° 0 mm 2 mps 706 mmHg 54%
    17:00 +17°C° 0 mm 2 mps 705 mmHg 62%
    18:00 +15°C° 0 mm 1 mps 705 mmHg 69%
    19:00 +15°C° 0 mm 1 mps 705 mmHg 72%
    20:00 +14°C° 0 mm 1 mps 706 mmHg 75%
    21:00 +14°C° 0 mm 1 mps 706 mmHg 77%
    22:00 +14°C° 0 mm 1 mps 706 mmHg 79%
    23:00 +13°C° 0 mm 1 mps 706 mmHg 80%

    Tomorrow, 18 October, Thursday

    Time Temperature Precipitation Wind Pressure Humidity
    00:00 +13°C° 0 mm 1 mps 705 mmHg 81%
    01:00 +13°C° 0 mm 1 mps 705 mmHg 81%
    02:00 +12°C° 0 mm 1 mps 705 mmHg 81%
    03:00 +12°C° 0 mm 1 mps 705 mmHg 81%
    04:00 +12°C° 0 mm 1 mps 705 mmHg 81%
    05:00 +12°C° 0 mm 1 mps 704 mmHg 81%
    06:00 +11°C° 0 mm 1 mps 704 mmHg 80%
    07:00 +14°C° 0 mm 1 mps 704 mmHg 73%
    08:00 +16°C° 0 mm 1 mps 705 mmHg 65%
    09:00 +19°C° 0 mm 1 mps 705 mmHg 57%
    10:00 +20°C° 0 mm 1 mps 705 mmHg 51%
    11:00 +21°C° 0 mm 2 mps 705 mmHg 44%
    12:00 +23°C° 0 mm 2 mps 705 mmHg 38%
    13:00 +23°C° 0 mm 2 mps 704 mmHg 36%
    14:00 +24°C° 0 mm 2 mps 704 mmHg 35%
    15:00 +24°C° 0 mm 2 mps 704 mmHg 34%
    16:00 +21°C° 0 mm 2 mps 704 mmHg 41%
    17:00 +18°C° 0 mm 2 mps 704 mmHg 48%
    18:00 +16°C° 0 mm 1 mps 704 mmHg 55%
    19:00 +16°C° 0 mm 1 mps 704 mmHg 59%
    20:00 +15°C° 0 mm 1 mps 704 mmHg 62%
    21:00 +14°C° 0 mm 1 mps 704 mmHg 66%
    22:00 +14°C° 0 mm 1 mps 704 mmHg 69%
    23:00 +13°C° 0 mm 1 mps 704 mmHg 72%

    Day after tomorrow, 19 October, Friday

    Time Temperature Precipitation Wind Pressure Humidity
    00:00 +13°C° 0 mm 1 mps 704 mmHg 75%
    01:00 +13°C° 0 mm 1 mps 704 mmHg 76%
    02:00 +13°C° 0 mm 1 mps 704 mmHg 77%
    03:00 +13°C° 0 mm 1 mps 704 mmHg 78%
    04:00 +12°C° 0 mm 1 mps 704 mmHg 79%
    05:00 +12°C° 0 mm 1 mps 704 mmHg 79%
    06:00 +12°C° 0 mm 1 mps 704 mmHg 80%
    07:00 +14°C° 0 mm 1 mps 704 mmHg 75%
    08:00 +15°C° 0 mm 1 mps 704 mmHg 69%
    09:00 +18°C° 0 mm 1 mps 704 mmHg 64%
    10:00 +19°C° 0 mm 1 mps 704 mmHg 59%
    11:00 +19°C° 0 mm 2 mps 704 mmHg 53%
    12:00 +21°C° 0 mm 2 mps 704 mmHg 48%
    13:00 +21°C° 0 mm 2 mps 704 mmHg 46%
    14:00 +21°C° 0 mm 2 mps 703 mmHg 44%
    15:00 +23°C° 0 mm 2 mps 703 mmHg 43%
    16:00 +20°C° 0 mm 2 mps 703 mmHg 50%
    17:00 +19°C° 0 mm 1 mps 703 mmHg 57%
    18:00 +16°C° 0 mm 1 mps 703 mmHg 64%
    19:00 +15°C° 0 mm 1 mps 703 mmHg 66%
    20:00 +15°C° 0 mm 1 mps 703 mmHg 68%
    21:00 +14°C° 0 mm 1 mps 703 mmHg 70%
    22:00 +14°C° 0 mm 1 mps 703 mmHg 70%
    23:00 +13°C° 0 mm 1 mps 703 mmHg 70%

    20 October, Saturday

    Time Temperature Precipitation Wind Pressure Humidity
    00:00 +13°C° 0 mm 1 mps 703 mmHg 70%
    01:00 +13°C° 0 mm 1 mps 703 mmHg 70%
    02:00 +13°C° 0 mm 1 mps 703 mmHg 70%
    03:00 +12°C° 0 mm 1 mps 703 mmHg 70%
    04:00 +12°C° 0 mm 1 mps 703 mmHg 70%
    05:00 +12°C° 0 mm 1 mps 703 mmHg 70%
    06:00 +12°C° 0 mm 1 mps 702 mmHg 70%
    07:00 +14°C° 0 mm 1 mps 703 mmHg 65%
    08:00 +16°C° 0 mm 1 mps 703 mmHg 60%
    09:00 +19°C° 0 mm 1 mps 703 mmHg 56%
    10:00 +20°C° 0 mm 1 mps 703 mmHg 51%
    11:00 +22°C° 0 mm 1 mps 702 mmHg 46%
    12:00 +24°C° 0 mm 1 mps 702 mmHg 41%
    13:00 +24°C° 0 mm 1 mps 702 mmHg 40%
    14:00 +24°C° 0 mm 1 mps 702 mmHg 39%
    15:00 +25°C° 0 mm 1 mps 701 mmHg 38%
    16:00 +23°C° 0 mm 1 mps 701 mmHg 44%
    17:00 +21°C° 0 mm 1 mps 701 mmHg 51%
    18:00 +17°C° 0 mm 0 mps 701 mmHg 58%
    19:00 +16°C° 0 mm 0 mps 702 mmHg 59%
    20:00 +16°C° 0 mm 0 mps 702 mmHg 59%
    21:00 +16°C° 0 mm 1 mps 702 mmHg 60%
    22:00 +16°C° 0 mm 1 mps 702 mmHg 60%
    23:00 +16°C° 0 mm 1 mps 702 mmHg 60%

    21 October, Sunday

    Time Temperature Precipitation Wind Pressure Humidity
    00:00 +15°C° 0 mm 1 mps 701 mmHg 61%
    01:00 +15°C° 0 mm 1 mps 701 mmHg 61%
    02:00 +15°C° 0 mm 1 mps 701 mmHg 62%
    03:00 +14°C° 0 mm 1 mps 701 mmHg 62%
    04:00 +14°C° 0 mm 1 mps 701 mmHg 62%
    05:00 +14°C° 0 mm 1 mps 701 mmHg 62%
    06:00 +14°C° 0 mm 1 mps 701 mmHg 62%
    07:00 +16°C° 0 mm 1 mps 701 mmHg 58%
    08:00 +18°C° 0 mm 1 mps 701 mmHg 54%
    09:00 +20°C° 0 mm 1 mps 701 mmHg 50%
    10:00 +21°C° 0 mm 1 mps 701 mmHg 47%
    11:00 +22°C° 0 mm 1 mps 701 mmHg 44%
    12:00 +23°C° 0 mm 2 mps 701 mmHg 40%
    13:00 +23°C° 0 mm 2 mps 701 mmHg 41%
    14:00 +23°C° 0 mm 2 mps 700 mmHg 41%
    15:00 +23°C° 0 mm 2 mps 700 mmHg 41%
    16:00 +21°C° 0 mm 1 mps 700 mmHg 46%
    17:00 +20°C° 0 mm 1 mps 700 mmHg 52%
    18:00 +16°C° 0 mm 0 mps 700 mmHg 58%
    19:00 +18°C° 0.1 mm 1 mps 700 mmHg 59%
    20:00 +18°C° 0.1 mm 1 mps 700 mmHg 60%
    21:00 +16°C° 0.1 mm 1 mps 700 mmHg 61%
    22:00 +16°C° 0 mm 1 mps 700 mmHg 62%
    23:00 +15°C° 0 mm 1 mps 700 mmHg 62%

    22 October, Monday

    Time Temperature Precipitation Wind Pressure Humidity
    00:00 +15°C° 0 mm 1 mps 700 mmHg 63%
    01:00 +15°C° 0 mm 1 mps 700 mmHg 64%
    02:00 +14°C° 0 mm 1 mps 700 mmHg 64%
    03:00 +14°C° 0 mm 1 mps 700 mmHg 65%
    04:00 +14°C° 0 mm 1 mps 700 mmHg 66%
    05:00 +13°C° 0 mm 1 mps 700 mmHg 66%
    06:00 +13°C° 0 mm 1 mps 700 mmHg 67%
    07:00 +15°C° 0 mm 1 mps 701 mmHg 60%
    08:00 +16°C° 0 mm 1 mps 701 mmHg 53%
    09:00 +19°C° 0 mm 1 mps 701 mmHg 46%
    10:00 +20°C° 0 mm 1 mps 701 mmHg 43%
    11:00 +22°C° 0 mm 1 mps 701 mmHg 39%
    12:00 +23°C° 0 mm 2 mps 701 mmHg 36%
    13:00 +23°C° 0 mm 1 mps 701 mmHg 37%
    14:00 +23°C° 0 mm 1 mps 701 mmHg 37%
    15:00 +23°C° 0 mm 1 mps 701 mmHg 37%
    16:00 +21°C° 0 mm 1 mps 701 mmHg 43%
    17:00 +20°C° 0 mm 1 mps 701 mmHg 48%
    18:00 +16°C° 0 mm 0 mps 702 mmHg 54%
    19:00 +16°C° 0 mm 1 mps 702 mmHg 55%
    20:00 +16°C° 0 mm 1 mps 702 mmHg 56%
    21:00 +15°C° 0 mm 1 mps 702 mmHg 57%
    22:00 +15°C° 0 mm 1 mps 702 mmHg 58%
    23:00 +15°C° 0 mm 1 mps 702 mmHg 58%
    Show more